Tracking 17560 objects as of 13-February-2016
HD Live streaming from Space Station
objects crossing your sky now

COSMOS 2251 DEB

Track COSMOS 2251 DEB now!
10-day predictions


NORAD ID: 38196
Int'l Code: 1993-036BSL
Perigee: 622.1 km
Apogee: 927.6 km
Inclination: 73.9 °
Period: 100.2 minutes
Semi major axis: 7145 km
RCS: 0.0033 m2 (small)
Launch date: June 16, 1993
Source: Commonwealth of Independent States (former USSR) (CIS)
Launch site: PLESETSK MISSILE AND SPACE COMPLEX (PKMTR)

Note: This is SATELLITE DEBRIS
Your satellite tracking list
Your tracking list is empty





NASA's NSSDC Master Catalog

Two Line Element Set (TLE):
1 38196U 93036BSL 16042.48145384  .00007407  00000-0  19177-2 0  9993
2 38196  73.8918  86.6621 0213798 297.3573  60.5963 14.3721916257759
Source of the keplerian elements: AFSPC

N2YO: 297